Location: Coed Ely
(51.5661°N, 3.4150°W)
Time: 02:48:26
(UTC+00:00)

Cosmos 2344 - Pass Details

Date: 28 January 2021
Orbit: 1243 x 2999 km, 63.3° (Epoch: 24 February)

Event Time Altitude Azimuth Distance (km) Brightness Sun altitude
Rises 17:17:36 0° 310° (NW) 4,393 6.8 -3.8°
Reaches altitude 10° 17:20:12 10° 313° (NW) 3,530 6.2 -4.2°
Maximum altitude 17:28:51 67° 37° (NE) 1,843 4.3 -5.4°
Drops below altitude 10° 17:40:44 10° 119° (ESE) 4,759 6.2 -7.1°
Sets 17:44:52 0° 123° (ESE) 6,009 6.7 -7.7°
